Weather History for KHYA - July, 2014

Change the Weather History Date:

Saturday, July 26, 2014

  Actual Average Record
Temperature  
Mean Temperature 70 °F -  
Max Temperature 77 °F - - ()
Min Temperature 64 °F - - ()
Cooling Degree Days 6    
Growing Degree Days 20 (Base 50)    
Moisture  
Dew Point 65 °F    
Average Humidity 81    
Maximum Humidity 93    
Minimum Humidity 71    
Precipitation  
Precipitation 0.00 in - - ()
Sea Level Pressure  
Sea Level Pressure 29.96 in    
Wind  
Wind Speed 10 mph (SW)    
Max Wind Speed 16 mph    
Max Gust Speed 23 mph    
Visibility 10 miles    
Events Rain    
T = Trace of Precipitation, MM = Missing Value Source: NWS Daily Summary

Daily Weather History Graph

Daily Weather History Graph

Search for Another Location

Airport or City:

Trip Planner

Search our weather history database for the weather conditions in past years. The results will help you decide how hot, cold, wet, or windy it might be!

Date:

Astronomy

Jul. 26, 2014 Rise Set
Actual Time 5:29 AM EDT 8:05 PM EDT
Civil Twilight 4:57 AM EDT 8:37 PM EDT
Nautical Twilight 4:17 AM EDT 9:16 PM EDT
Astronomical Twilight 3:32 AM EDT 10:01 PM EDT
Moon 5:20 AM EDT (7/26) 7:36 PM EDT (7/26)
Length of Visible Light 15h 39m
Length of Day
14h 35m
Waning Crescent, 0% of the Moon is Illuminated
Jul 26
Waning Crescent
Jul 26
New
Aug 3
First Quarter
Aug 10
Full
Aug 17
Last Quarter

Hourly Weather History & Observations

Time (EDT) Temp. Dew Point Humidity Pressure Visibility Wind Dir Wind Speed Gust Speed Precip Events Conditions
12:56 AM 69.1 °F 62.1 °F 78% 29.99 in 10.0 mi WSW 9.2 mph - N/A   Clear
1:56 AM 68.0 °F 61.0 °F 78% 29.99 in 10.0 mi WSW 10.4 mph - N/A   Clear
2:56 AM 66.0 °F 61.0 °F 84% 29.98 in 10.0 mi SW 9.2 mph - N/A   Clear
3:56 AM 64.0 °F 61.0 °F 90% 29.98 in 10.0 mi SW 5.8 mph - N/A   Clear
4:56 AM 64.0 °F 62.1 °F 93% 29.99 in 10.0 mi WSW 5.8 mph - N/A   Clear
5:56 AM 64.9 °F 62.1 °F 90% 30.00 in 10.0 mi WSW 5.8 mph - N/A   Clear
6:56 AM 68.0 °F 64.9 °F 90% 30.00 in 10.0 mi SW 4.6 mph - N/A   Clear
7:56 AM 71.1 °F 64.9 °F 81% 30.00 in 10.0 mi WSW 9.2 mph - N/A   Clear
8:56 AM 73.9 °F 66.0 °F 76% 30.01 in 10.0 mi SW 10.4 mph - N/A   Clear
9:56 AM 75.9 °F 66.0 °F 71% 30.00 in 10.0 mi SW 12.7 mph - N/A   Clear
11:56 AM 77.0 °F 68.0 °F 74% 29.98 in 10.0 mi SSW 15.0 mph 23.0 mph N/A   Clear
1:59 PM 75.9 °F 68.0 °F 76% 29.95 in 10.0 mi SSW 13.8 mph 21.9 mph N/A   Mostly Cloudy
2:56 PM 73.9 °F 68.0 °F 82% 29.94 in 10.0 mi SSW 15.0 mph - N/A   Scattered Clouds
3:56 PM 73.9 °F 66.9 °F 79% 29.94 in 10.0 mi SSW 16.1 mph 23.0 mph N/A   Scattered Clouds
4:56 PM 73.0 °F 66.9 °F 81% 29.93 in 10.0 mi SSW 13.8 mph - N/A   Mostly Cloudy
5:56 PM 72.0 °F 68.0 °F 87% 29.93 in 10.0 mi SW 13.8 mph - 0.00 in Rain Light Rain
6:56 PM 72.0 °F 62.1 °F 71% 29.92 in 10.0 mi SW 15.0 mph - 0.00 in   Scattered Clouds
7:56 PM 72.0 °F 64.9 °F 78% 29.93 in 10.0 mi SW 11.5 mph - N/A   Mostly Cloudy
8:56 PM 72.0 °F 66.0 °F 81% 29.93 in 10.0 mi SW 13.8 mph 20.7 mph N/A   Scattered Clouds
9:56 PM 71.1 °F 64.9 °F 81% 29.94 in 10.0 mi SW 10.4 mph - N/A   Partly Cloudy
10:56 PM 71.1 °F 66.9 °F 87% 29.94 in 10.0 mi SW 10.4 mph - N/A   Scattered Clouds
11:56 PM 70.0 °F 64.9 °F 84% 29.93 in 10.0 mi SW 10.4 mph - N/A   Clear